Data supplied by UK-AIR on 25/3/2020
All Data GMT hour ending 
Status: R =Ratified P=Provisional,P*=As supplied
,,Hull Holderness Road,,,,,,,,,,,,,,,,,,,,,,,
Date,time,"PM<sub>10</sub> particulate matter (Hourly measured)",status,unit,"Nitric oxide",status,unit,"Nitrogen dioxide",status,unit,"Nitrogen oxides as nitrogen dioxide",status,unit
 
01-01-2019,01:00,,,,1.81627,R,ugm-3,11.15579,R,ugm-3,13.94069,R,ugm-3
01-01-2019,02:00,,,,1.94114,R,ugm-3,10.08003,R,ugm-3,13.05640,R,ugm-3
01-01-2019,03:00,,,,1.36220,R,ugm-3,7.17044,R,ugm-3,9.25912,R,ugm-3
01-01-2019,04:00,,,,1.08976,R,ugm-3,3.27072,R,ugm-3,4.94167,R,ugm-3
01-01-2019,05:00,,,,1.08976,R,ugm-3,3.58283,R,ugm-3,5.25377,R,ugm-3
01-01-2019,06:00,,,,1.02165,R,ugm-3,2.54288,R,ugm-3,4.10938,R,ugm-3
01-01-2019,07:00,,,,1.32815,R,ugm-3,3.78950,R,ugm-3,5.82596,R,ugm-3
01-01-2019,08:00,,,,1.29409,R,ugm-3,4.41391,R,ugm-3,6.39815,R,ugm-3
01-01-2019,09:00,,,,0.64705,R,ugm-3,4.67779,R,ugm-3,5.66991,R,ugm-3
01-01-2019,10:00,,,,2.17952,R,ugm-3,15.74854,R,ugm-3,19.09043,R,ugm-3
01-01-2019,11:00,,,,3.71200,R,ugm-3,13.60685,R,ugm-3,19.29850,R,ugm-3
01-01-2019,12:00,,,,1.26004,R,ugm-3,5.14236,R,ugm-3,7.07438,R,ugm-3
01-01-2019,13:00,,,,2.65629,R,ugm-3,5.81041,R,ugm-3,9.88333,R,ugm-3
01-01-2019,14:00,,,,2.79251,R,ugm-3,6.27776,R,ugm-3,10.55956,R,ugm-3
01-01-2019,15:00,,,,2.82657,R,ugm-3,7.63002,R,ugm-3,11.96403,R,ugm-3
01-01-2019,16:00,,,,2.17952,R,ugm-3,7.63381,R,ugm-3,10.97570,R,ugm-3
01-01-2019,17:00,,,,1.73681,R,ugm-3,7.27228,R,ugm-3,9.93535,R,ugm-3
01-01-2019,18:00,,,,2.69035,R,ugm-3,9.97161,R,ugm-3,14.09675,R,ugm-3
01-01-2019,19:00,,,,2.92873,R,ugm-3,8.92986,R,ugm-3,13.42052,R,ugm-3
01-01-2019,20:00,,,,1.60059,R,ugm-3,6.96097,R,ugm-3,9.41517,R,ugm-3
01-01-2019,21:00,,,,2.62224,R,ugm-3,10.54420,R,ugm-3,14.56490,R,ugm-3
01-01-2019,22:00,,,,1.70275,R,ugm-3,8.20879,R,ugm-3,10.81964,R,ugm-3
01-01-2019,23:00,,,,1.46437,R,ugm-3,3.68467,R,ugm-3,5.93000,R,ugm-3
01-01-2019,24:00,,,,0.78327,R,ugm-3,1.19182,R,ugm-3,2.39281,R,ugm-3
02-01-2019,01:00,,,,1.08975,R,ugm-3,3.11261,R,ugm-3,4.78354,R,ugm-3
02-01-2019,02:00,,,,0.47677,R,ugm-3,1.29677,R,ugm-3,2.02781,R,ugm-3
02-01-2019,03:00,,,,0.98759,R,ugm-3,3.26926,R,ugm-3,4.78354,R,ugm-3
02-01-2019,04:00,,,,0.30649,R,ugm-3,1.97382,R,ugm-3,2.44376,R,ugm-3
02-01-2019,05:00,,,,0.98759,R,ugm-3,2.64532,R,ugm-3,4.15960,R,ugm-3
02-01-2019,06:00,,,,5.41470,R,ugm-3,13.58745,R,ugm-3,21.88988,R,ugm-3
02-01-2019,07:00,,,,12.53214,R,ugm-3,25.81195,R,ugm-3,45.02764,R,ugm-3
02-01-2019,08:00,,,,25.06429,R,ugm-3,48.81618,R,ugm-3,87.24755,R,ugm-3
02-01-2019,09:00,,,,33.16932,R,ugm-3,59.42241,R,ugm-3,110.28132,R,ugm-3
02-01-2019,10:00,,,,27.55029,R,ugm-3,43.08056,R,ugm-3,85.32374,R,ugm-3
02-01-2019,11:00,,,,23.39561,R,ugm-3,39.93590,R,ugm-3,75.80866,R,ugm-3
02-01-2019,12:00,,,,18.90038,R,ugm-3,38.14532,R,ugm-3,67.12550,R,ugm-3
02-01-2019,13:00,,,,15.15436,R,ugm-3,29.90249,R,ugm-3,53.13886,R,ugm-3
02-01-2019,14:00,,,,10.44346,R,ugm-3,24.68165,R,ugm-3,40.69473,R,ugm-3
02-01-2019,15:00,,,,29.42330,R,ugm-3,45.91076,R,ugm-3,91.02585,R,ugm-3
02-01-2019,16:00,28.020,R,ugm-3 (Ref.eq),24.79185,R,ugm-3,38.41896,R,ugm-3,76.43260,R,ugm-3
02-01-2019,17:00,17.392,R,ugm-3 (Ref.eq),21.14799,R,ugm-3,43.79815,R,ugm-3,76.22462,R,ugm-3
02-01-2019,18:00,21.256,R,ugm-3 (Ref.eq),20.09230,R,ugm-3,41.15327,R,ugm-3,71.96103,R,ugm-3
02-01-2019,19:00,26.087,R,ugm-3 (Ref.eq),19.61553,R,ugm-3,37.82870,R,ugm-3,67.90543,R,ugm-3
02-01-2019,20:00,19.324,R,ugm-3 (Ref.eq),10.89752,R,ugm-3,24.99067,R,ugm-3,41.69996,R,ugm-3
02-01-2019,21:00,26.087,R,ugm-3 (Ref.eq),5.72120,R,ugm-3,24.08844,R,ugm-3,32.86082,R,ugm-3
02-01-2019,22:00,33.817,R,ugm-3 (Ref.eq),7.38988,R,ugm-3,33.43668,R,ugm-3,44.76767,R,ugm-3
02-01-2019,23:00,26.087,R,ugm-3 (Ref.eq),6.77689,R,ugm-3,40.25201,R,ugm-3,50.64310,R,ugm-3
02-01-2019,24:00,22.223,R,ugm-3 (Ref.eq),4.66550,R,ugm-3,26.33109,R,ugm-3,33.48476,R,ugm-3
03-01-2019,01:00,22.223,R,ugm-3 (Ref.eq),2.45192,R,ugm-3,17.16800,R,ugm-3,20.92756,R,ugm-3
03-01-2019,02:00,21.256,R,ugm-3 (Ref.eq),0.72650,R,ugm-3,9.28054,R,ugm-3,10.39448,R,ugm-3
03-01-2019,03:00,19.324,R,ugm-3 (Ref.eq),1.12380,R,ugm-3,13.55676,R,ugm-3,15.27989,R,ugm-3
03-01-2019,04:00,17.392,R,ugm-3 (Ref.eq),0.68109,R,ugm-3,14.13162,R,ugm-3,15.17595,R,ugm-3
03-01-2019,05:00,21.256,R,ugm-3 (Ref.eq),1.29407,R,ugm-3,15.99824,R,ugm-3,17.98246,R,ugm-3
03-01-2019,06:00,15.459,R,ugm-3 (Ref.eq),4.12059,R,ugm-3,18.47269,R,ugm-3,24.79084,R,ugm-3
03-01-2019,07:00,18.358,R,ugm-3 (Ref.eq),16.07371,R,ugm-3,25.09160,R,ugm-3,49.73760,R,ugm-3
03-01-2019,08:00,26.087,R,ugm-3 (Ref.eq),24.68949,R,ugm-3,39.99800,R,ugm-3,77.85468,R,ugm-3
03-01-2019,09:00,25.121,R,ugm-3 (Ref.eq),25.06408,R,ugm-3,43.47747,R,ugm-3,81.90853,R,ugm-3
03-01-2019,10:00,22.223,R,ugm-3 (Ref.eq),17.43589,R,ugm-3,29.39556,R,ugm-3,56.13021,R,ugm-3
03-01-2019,11:00,26.087,R,ugm-3 (Ref.eq),14.20071,R,ugm-3,24.01358,R,ugm-3,45.78770,R,ugm-3
03-01-2019,12:00,22.223,R,ugm-3 (Ref.eq),10.01201,R,ugm-3,22.32846,R,ugm-3,37.68000,R,ugm-3
03-01-2019,13:00,26.087,R,ugm-3 (Ref.eq),18.59374,R,ugm-3,23.20256,R,ugm-3,51.71256,R,ugm-3
03-01-2019,14:00,21.256,R,ugm-3 (Ref.eq),21.11377,R,ugm-3,36.22960,R,ugm-3,68.60359,R,ugm-3
03-01-2019,15:00,29.952,R,ugm-3 (Ref.eq),13.51962,R,ugm-3,36.18000,R,ugm-3,56.90980,R,ugm-3
03-01-2019,16:00,24.155,R,ugm-3 (Ref.eq),18.76401,R,ugm-3,36.66220,R,ugm-3,65.43327,R,ugm-3
03-01-2019,17:00,25.121,R,ugm-3 (Ref.eq),23.73596,R,ugm-3,42.96725,R,ugm-3,79.36188,R,ugm-3
03-01-2019,18:00,37.682,R,ugm-3 (Ref.eq),25.81328,R,ugm-3,54.54223,R,ugm-3,94.12205,R,ugm-3
03-01-2019,19:00,42.513,R,ugm-3 (Ref.eq),51.01359,R,ugm-3,67.97867,R,ugm-3,146.19841,R,ugm-3
03-01-2019,20:00,46.378,R,ugm-3 (Ref.eq),22.37378,R,ugm-3,68.44348,R,ugm-3,102.74947,R,ugm-3
03-01-2019,21:00,53.141,R,ugm-3 (Ref.eq),31.12578,R,ugm-3,70.14791,R,ugm-3,117.87344,R,ugm-3
03-01-2019,22:00,50.242,R,ugm-3 (Ref.eq),21.38620,R,ugm-3,68.08674,R,ugm-3,100.87846,R,ugm-3
03-01-2019,23:00,41.547,R,ugm-3 (Ref.eq),12.08933,R,ugm-3,53.96480,R,ugm-3,72.50152,R,ugm-3
03-01-2019,24:00,28.020,R,ugm-3 (Ref.eq),9.26281,R,ugm-3,33.66381,R,ugm-3,47.86660,R,ugm-3
04-01-2019,01:00,23.189,R,ugm-3 (Ref.eq),1.81622,R,ugm-3,22.63597,R,ugm-3,25.42080,R,ugm-3
04-01-2019,02:00,28.020,R,ugm-3 (Ref.eq),0.95352,R,ugm-3,23.19683,R,ugm-3,24.65887,R,ugm-3
04-01-2019,03:00,32.851,R,ugm-3 (Ref.eq),1.73676,R,ugm-3,26.68868,R,ugm-3,29.35168,R,ugm-3
04-01-2019,04:00,28.986,R,ugm-3 (Ref.eq),1.56649,R,ugm-3,31.57329,R,ugm-3,33.97521,R,ugm-3
04-01-2019,05:00,27.054,R,ugm-3 (Ref.eq),3.57569,R,ugm-3,37.22015,R,ugm-3,42.70279,R,ugm-3
04-01-2019,06:00,32.851,R,ugm-3 (Ref.eq),5.14218,R,ugm-3,43.07825,R,ugm-3,50.96282,R,ugm-3
04-01-2019,07:00,28.986,R,ugm-3 (Ref.eq),30.58066,R,ugm-3,54.25671,R,ugm-3,101.14640,R,ugm-3
04-01-2019,08:00,42.513,R,ugm-3 (Ref.eq),43.82774,R,ugm-3,54.77670,R,ugm-3,121.97829,R,ugm-3
04-01-2019,09:00,46.378,R,ugm-3 (Ref.eq),50.29803,R,ugm-3,58.51854,R,ugm-3,135.64111,R,ugm-3
04-01-2019,10:00,50.242,R,ugm-3 (Ref.eq),38.95799,R,ugm-3,54.71081,R,ugm-3,114.44556,R,ugm-3
04-01-2019,11:00,47.344,R,ugm-3 (Ref.eq),35.21203,R,ugm-3,50.84381,R,ugm-3,104.83484,R,ugm-3
04-01-2019,12:00,47.344,R,ugm-3 (Ref.eq),23.19090,R,ugm-3,44.02832,R,ugm-3,79.58720,R,ugm-3
04-01-2019,13:00,,,,27.07308,R,ugm-3,46.17991,R,ugm-3,87.69138,R,ugm-3
04-01-2019,14:00,,,,27.51578,R,ugm-3,39.89052,R,ugm-3,82.08079,R,ugm-3
04-01-2019,15:00,,,,23.46333,R,ugm-3,47.81853,R,ugm-3,83.79514,R,ugm-3
04-01-2019,16:00,42.513,R,ugm-3 (Ref.eq),22.81630,R,ugm-3,39.97915,R,ugm-3,74.96366,R,ugm-3
04-01-2019,17:00,38.648,R,ugm-3 (Ref.eq),16.31196,R,ugm-3,39.71822,R,ugm-3,64.72954,R,ugm-3
04-01-2019,18:00,35.749,R,ugm-3 (Ref.eq),22.71414,R,ugm-3,40.70725,R,ugm-3,75.53511,R,ugm-3
04-01-2019,19:00,40.580,R,ugm-3 (Ref.eq),15.76709,R,ugm-3,43.72262,R,ugm-3,67.89848,R,ugm-3
04-01-2019,20:00,31.885,R,ugm-3 (Ref.eq),11.64653,R,ugm-3,35.18305,R,ugm-3,53.04082,R,ugm-3
04-01-2019,21:00,27.054,R,ugm-3 (Ref.eq),8.27517,R,ugm-3,25.75449,R,ugm-3,38.44290,R,ugm-3
04-01-2019,22:00,23.189,R,ugm-3 (Ref.eq),9.67139,R,ugm-3,19.82131,R,ugm-3,34.65056,R,ugm-3
04-01-2019,23:00,16.425,R,ugm-3 (Ref.eq),3.67785,R,ugm-3,12.75096,R,ugm-3,18.39025,R,ugm-3
04-01-2019,24:00,16.425,R,ugm-3 (Ref.eq),4.80164,R,ugm-3,9.83299,R,ugm-3,17.19541,R,ugm-3
05-01-2019,01:00,13.527,R,ugm-3 (Ref.eq),2.27026,R,ugm-3,9.53543,R,ugm-3,13.01645,R,ugm-3
05-01-2019,02:00,16.425,R,ugm-3 (Ref.eq),2.24756,R,ugm-3,7.19889,R,ugm-3,10.64510,R,ugm-3
05-01-2019,03:00,17.392,R,ugm-3 (Ref.eq),1.80486,R,ugm-3,8.03347,R,ugm-3,10.80088,R,ugm-3
05-01-2019,04:00,14.493,R,ugm-3 (Ref.eq),1.73675,R,ugm-3,6.89165,R,ugm-3,9.55463,R,ugm-3
05-01-2019,05:00,12.561,R,ugm-3 (Ref.eq),0.91946,R,ugm-3,5.91194,R,ugm-3,7.32175,R,ugm-3
05-01-2019,06:00,12.561,R,ugm-3 (Ref.eq),1.87296,R,ugm-3,9.01952,R,ugm-3,11.89136,R,ugm-3
05-01-2019,07:00,16.425,R,ugm-3 (Ref.eq),6.60646,R,ugm-3,18.79376,R,ugm-3,28.92352,R,ugm-3
05-01-2019,08:00,25.121,R,ugm-3 (Ref.eq),8.27510,R,ugm-3,21.84336,R,ugm-3,34.53167,R,ugm-3
05-01-2019,09:00,28.020,R,ugm-3 (Ref.eq),14.37075,R,ugm-3,28.02310,R,ugm-3,50.05794,R,ugm-3
05-01-2019,10:00,26.087,R,ugm-3 (Ref.eq),15.46047,R,ugm-3,25.36559,R,ugm-3,49.07132,R,ugm-3
05-01-2019,11:00,27.054,R,ugm-3 (Ref.eq),21.35180,R,ugm-3,32.94909,R,ugm-3,65.68806,R,ugm-3
05-01-2019,12:00,34.783,R,ugm-3 (Ref.eq),22.20315,R,ugm-3,29.30698,R,ugm-3,63.35133,R,ugm-3
05-01-2019,13:00,25.121,R,ugm-3 (Ref.eq),12.22535,R,ugm-3,20.71948,R,ugm-3,39.46476,R,ugm-3
05-01-2019,14:00,21.256,R,ugm-3 (Ref.eq),13.34913,R,ugm-3,18.16554,R,ugm-3,38.63393,R,ugm-3
05-01-2019,15:00,32.851,R,ugm-3 (Ref.eq),16.44804,R,ugm-3,23.64364,R,ugm-3,48.86361,R,ugm-3
05-01-2019,16:00,28.986,R,ugm-3 (Ref.eq),15.01777,R,ugm-3,30.71785,R,ugm-3,53.74478,R,ugm-3
05-01-2019,17:00,36.716,R,ugm-3 (Ref.eq),25.13178,R,ugm-3,41.38128,R,ugm-3,79.91615,R,ugm-3
05-01-2019,18:00,38.648,R,ugm-3 (Ref.eq),27.61772,R,ugm-3,49.92827,R,ugm-3,92.27485,R,ugm-3
05-01-2019,19:00,44.445,R,ugm-3 (Ref.eq),60.78622,R,ugm-3,58.68317,R,ugm-3,151.88741,R,ugm-3
05-01-2019,20:00,43.479,R,ugm-3 (Ref.eq),37.05065,R,ugm-3,51.87368,R,ugm-3,108.68388,R,ugm-3
05-01-2019,21:00,40.580,R,ugm-3 (Ref.eq),21.89666,R,ugm-3,47.22450,R,ugm-3,80.79891,R,ugm-3
05-01-2019,22:00,29.952,R,ugm-3 (Ref.eq),15.35831,R,ugm-3,52.62830,R,ugm-3,76.17738,R,ugm-3
05-01-2019,23:00,35.749,R,ugm-3 (Ref.eq),12.73616,R,ugm-3,42.57657,R,ugm-3,62.10508,R,ugm-3
05-01-2019,24:00,33.817,R,ugm-3 (Ref.eq),12.42968,R,ugm-3,42.57916,R,ugm-3,61.63773,R,ugm-3
06-01-2019,01:00,36.716,R,ugm-3 (Ref.eq),7.08316,R,ugm-3,37.92980,R,ugm-3,48.79049,R,ugm-3
06-01-2019,02:00,24.155,R,ugm-3 (Ref.eq),11.16959,R,ugm-3,36.43926,R,ugm-3,53.56573,R,ugm-3
06-01-2019,03:00,19.324,R,ugm-3 (Ref.eq),3.47347,R,ugm-3,14.86504,R,ugm-3,20.19096,R,ugm-3
06-01-2019,04:00,24.155,R,ugm-3 (Ref.eq),1.02161,R,ugm-3,10.06022,R,ugm-3,11.62667,R,ugm-3
06-01-2019,05:00,24.155,R,ugm-3 (Ref.eq),4.15454,R,ugm-3,17.29837,R,ugm-3,23.66858,R,ugm-3
06-01-2019,06:00,28.020,R,ugm-3 (Ref.eq),2.48592,R,ugm-3,14.87404,R,ugm-3,18.68572,R,ugm-3
06-01-2019,07:00,28.020,R,ugm-3 (Ref.eq),14.60901,R,ugm-3,32.20365,R,ugm-3,54.60382,R,ugm-3
06-01-2019,08:00,22.223,R,ugm-3 (Ref.eq),26.32346,R,ugm-3,46.78604,R,ugm-3,87.14811,R,ugm-3
06-01-2019,09:00,25.121,R,ugm-3 (Ref.eq),28.57099,R,ugm-3,48.84177,R,ugm-3,92.65002,R,ugm-3
06-01-2019,10:00,24.155,R,ugm-3 (Ref.eq),14.84738,R,ugm-3,40.50625,R,ugm-3,63.27192,R,ugm-3
06-01-2019,11:00,22.223,R,ugm-3 (Ref.eq),17.87816,R,ugm-3,34.71722,R,ugm-3,62.13001,R,ugm-3
06-01-2019,12:00,24.155,R,ugm-3 (Ref.eq),17.67383,R,ugm-3,33.26575,R,ugm-3,60.36525,R,ugm-3
06-01-2019,13:00,23.189,R,ugm-3 (Ref.eq),15.52846,R,ugm-3,32.03957,R,ugm-3,55.84954,R,ugm-3
06-01-2019,14:00,19.324,R,ugm-3 (Ref.eq),8.85394,R,ugm-3,22.65367,R,ugm-3,36.22953,R,ugm-3
06-01-2019,15:00,21.256,R,ugm-3 (Ref.eq),14.23442,R,ugm-3,29.92326,R,ugm-3,51.74906,R,ugm-3
06-01-2019,16:00,32.851,R,ugm-3 (Ref.eq),17.98032,R,ugm-3,39.85487,R,ugm-3,67.42430,R,ugm-3
06-01-2019,17:00,29.952,R,ugm-3 (Ref.eq),17.46951,R,ugm-3,38.82142,R,ugm-3,65.60763,R,ugm-3
06-01-2019,18:00,41.547,R,ugm-3 (Ref.eq),90.58265,R,ugm-3,67.17048,R,ugm-3,206.06194,R,ugm-3
06-01-2019,19:00,53.141,R,ugm-3 (Ref.eq),152.42404,R,ugm-3,70.34455,R,ugm-3,304.05815,R,ugm-3
06-01-2019,20:00,35.749,R,ugm-3 (Ref.eq),35.34767,R,ugm-3,45.56197,R,ugm-3,99.76097,R,ugm-3
06-01-2019,21:00,18.358,R,ugm-3 (Ref.eq),6.57235,R,ugm-3,21.37683,R,ugm-3,31.45429,R,ugm-3
06-01-2019,22:00,26.087,R,ugm-3 (Ref.eq),9.84150,R,ugm-3,26.27802,R,ugm-3,41.36810,R,ugm-3
06-01-2019,23:00,28.986,R,ugm-3 (Ref.eq),5.44858,R,ugm-3,39.29421,R,ugm-3,47.64858,R,ugm-3
06-01-2019,24:00,33.817,R,ugm-3 (Ref.eq),4.63129,R,ugm-3,38.00403,R,ugm-3,45.10525,R,ugm-3
07-01-2019,01:00,57.972,R,ugm-3 (Ref.eq),6.99229,R,ugm-3,40.60745,R,ugm-3,51.32881,R,ugm-3
07-01-2019,02:00,32.851,R,ugm-3 (Ref.eq),4.66531,R,ugm-3,34.97499,R,ugm-3,42.12836,R,ugm-3
07-01-2019,03:00,26.087,R,ugm-3 (Ref.eq),1.80483,R,ugm-3,32.40878,R,ugm-3,35.17615,R,ugm-3
07-01-2019,04:00,28.020,R,ugm-3 (Ref.eq),2.96264,R,ugm-3,29.64773,R,ugm-3,34.19038,R,ugm-3
07-01-2019,05:00,26.087,R,ugm-3 (Ref.eq),10.65870,R,ugm-3,33.10065,R,ugm-3,49.44376,R,ugm-3
07-01-2019,06:00,29.952,R,ugm-3 (Ref.eq),12.66785,R,ugm-3,31.10952,R,ugm-3,50.53329,R,ugm-3
07-01-2019,07:00,26.087,R,ugm-3 (Ref.eq),41.64725,R,ugm-3,37.31211,R,ugm-3,101.17033,R,ugm-3
07-01-2019,08:00,29.952,R,ugm-3 (Ref.eq),91.60351,R,ugm-3,66.70895,R,ugm-3,207.16571,R,ugm-3
07-01-2019,09:00,28.020,R,ugm-3 (Ref.eq),76.10924,R,ugm-3,59.75223,R,ugm-3,176.45144,R,ugm-3
07-01-2019,10:00,28.020,R,ugm-3 (Ref.eq),52.51027,R,ugm-3,62.36902,R,ugm-3,142.88364,R,ugm-3
07-01-2019,11:00,25.121,R,ugm-3 (Ref.eq),35.75602,R,ugm-3,58.22623,R,ugm-3,113.05136,R,ugm-3
07-01-2019,12:00,14.493,R,ugm-3 (Ref.eq),22.40711,R,ugm-3,42.79178,R,ugm-3,77.14887,R,ugm-3
07-01-2019,13:00,12.561,R,ugm-3 (Ref.eq),7.79822,R,ugm-3,23.78975,R,ugm-3,35.74685,R,ugm-3
07-01-2019,14:00,10.628,R,ugm-3 (Ref.eq),6.94688,R,ugm-3,20.73701,R,ugm-3,31.38875,R,ugm-3
07-01-2019,15:00,8.696,R,ugm-3 (Ref.eq),4.93774,R,ugm-3,15.72403,R,ugm-3,23.29512,R,ugm-3
07-01-2019,16:00,4.831,R,ugm-3 (Ref.eq),6.67446,R,ugm-3,25.72036,R,ugm-3,35.95438,R,ugm-3
07-01-2019,17:00,8.696,R,ugm-3 (Ref.eq),6.74256,R,ugm-3,27.12051,R,ugm-3,37.45897,R,ugm-3
07-01-2019,18:00,14.493,R,ugm-3 (Ref.eq),8.24091,R,ugm-3,18.02651,R,ugm-3,30.66239,R,ugm-3
07-01-2019,19:00,15.459,R,ugm-3 (Ref.eq),7.08310,R,ugm-3,15.44369,R,ugm-3,26.30429,R,ugm-3
07-01-2019,20:00,13.527,R,ugm-3 (Ref.eq),4.76747,R,ugm-3,9.96676,R,ugm-3,17.27678,R,ugm-3
07-01-2019,21:00,20.290,R,ugm-3 (Ref.eq),2.41779,R,ugm-3,9.31522,R,ugm-3,13.02244,R,ugm-3
07-01-2019,22:00,16.425,R,ugm-3 (Ref.eq),3.43939,R,ugm-3,7.43749,R,ugm-3,12.71114,R,ugm-3
07-01-2019,23:00,15.459,R,ugm-3 (Ref.eq),1.63456,R,ugm-3,7.04004,R,ugm-3,9.54633,R,ugm-3
07-01-2019,24:00,16.425,R,ugm-3 (Ref.eq),1.53240,R,ugm-3,5.43269,R,ugm-3,7.78233,R,ugm-3
08-01-2019,01:00,16.425,R,ugm-3 (Ref.eq),1.77076,R,ugm-3,7.03449,R,ugm-3,9.74962,R,ugm-3
08-01-2019,02:00,14.493,R,ugm-3 (Ref.eq),0.49945,R,ugm-3,2.06919,R,ugm-3,2.83500,R,ugm-3
08-01-2019,03:00,15.459,R,ugm-3 (Ref.eq),0.44269,R,ugm-3,2.12164,R,ugm-3,2.80042,R,ugm-3
08-01-2019,04:00,7.730,R,ugm-3 (Ref.eq),0.17027,R,ugm-3,3.16167,R,ugm-3,3.42274,R,ugm-3
08-01-2019,05:00,8.696,R,ugm-3 (Ref.eq),0.64701,R,ugm-3,1.49720,R,ugm-3,2.48926,R,ugm-3
08-01-2019,06:00,13.527,R,ugm-3 (Ref.eq),1.83887,R,ugm-3,5.32241,R,ugm-3,8.14197,R,ugm-3
08-01-2019,07:00,15.459,R,ugm-3 (Ref.eq),4.42690,R,ugm-3,10.68889,R,ugm-3,17.47671,R,ugm-3
08-01-2019,08:00,19.324,R,ugm-3 (Ref.eq),12.22505,R,ugm-3,23.93569,R,ugm-3,42.68051,R,ugm-3
08-01-2019,09:00,24.155,R,ugm-3 (Ref.eq),12.80396,R,ugm-3,28.13030,R,ugm-3,47.76276,R,ugm-3
08-01-2019,10:00,27.054,R,ugm-3 (Ref.eq),13.58718,R,ugm-3,29.31493,R,ugm-3,50.14831,R,ugm-3
08-01-2019,11:00,19.324,R,ugm-3 (Ref.eq),13.51907,R,ugm-3,22.00342,R,ugm-3,42.73237,R,ugm-3
08-01-2019,12:00,25.121,R,ugm-3 (Ref.eq),9.94350,R,ugm-3,18.56602,R,ugm-3,33.81251,R,ugm-3
08-01-2019,13:00,21.256,R,ugm-3 (Ref.eq),11.03320,R,ugm-3,13.67988,R,ugm-3,30.59721,R,ugm-3
08-01-2019,14:00,26.087,R,ugm-3 (Ref.eq),8.07058,R,ugm-3,12.82909,R,ugm-3,25.20380,R,ugm-3
08-01-2019,15:00,19.324,R,ugm-3 (Ref.eq),8.51327,R,ugm-3,14.12097,R,ugm-3,27.17447,R,ugm-3
08-01-2019,16:00,25.121,R,ugm-3 (Ref.eq),14.33634,R,ugm-3,17.69056,R,ugm-3,39.67265,R,ugm-3
08-01-2019,17:00,26.087,R,ugm-3 (Ref.eq),13.34880,R,ugm-3,19.98266,R,ugm-3,40.45055,R,ugm-3
08-01-2019,18:00,25.121,R,ugm-3 (Ref.eq),16.99248,R,ugm-3,25.44188,R,ugm-3,51.49666,R,ugm-3
08-01-2019,19:00,24.155,R,ugm-3 (Ref.eq),13.04233,R,ugm-3,31.34312,R,ugm-3,51.34108,R,ugm-3
08-01-2019,20:00,22.223,R,ugm-3 (Ref.eq),10.07971,R,ugm-3,21.62433,R,ugm-3,37.07967,R,ugm-3
08-01-2019,21:00,18.358,R,ugm-3 (Ref.eq),7.79815,R,ugm-3,20.40343,R,ugm-3,32.36044,R,ugm-3
08-01-2019,22:00,17.392,R,ugm-3 (Ref.eq),4.05232,R,ugm-3,12.09300,R,ugm-3,18.30647,R,ugm-3
08-01-2019,23:00,12.561,R,ugm-3 (Ref.eq),3.64368,R,ugm-3,12.82329,R,ugm-3,18.41018,R,ugm-3
08-01-2019,24:00,15.459,R,ugm-3 (Ref.eq),3.57557,R,ugm-3,9.03824,R,ugm-3,14.52071,R,ugm-3
09-01-2019,01:00,17.392,R,ugm-3 (Ref.eq),0.86267,R,ugm-3,3.58451,R,ugm-3,4.90725,R,ugm-3
09-01-2019,02:00,8.696,R,ugm-3 (Ref.eq),0.68106,R,ugm-3,1.02921,R,ugm-3,2.07349,R,ugm-3
09-01-2019,03:00,13.527,R,ugm-3 (Ref.eq),0.57890,R,ugm-3,1.34137,R,ugm-3,2.22900,R,ugm-3
09-01-2019,04:00,14.493,R,ugm-3 (Ref.eq),0.51079,R,ugm-3,1.03110,R,ugm-3,1.81430,R,ugm-3
09-01-2019,05:00,9.662,R,ugm-3 (Ref.eq),0.64700,R,ugm-3,1.85898,R,ugm-3,2.85104,R,ugm-3
09-01-2019,06:00,15.459,R,ugm-3 (Ref.eq),2.04317,R,ugm-3,6.81991,R,ugm-3,9.95273,R,ugm-3
09-01-2019,07:00,14.493,R,ugm-3 (Ref.eq),7.18514,R,ugm-3,19.82603,R,ugm-3,30.84309,R,ugm-3
09-01-2019,08:00,15.459,R,ugm-3 (Ref.eq),20.09115,R,ugm-3,42.69905,R,ugm-3,73.50504,R,ugm-3
09-01-2019,09:00,22.223,R,ugm-3 (Ref.eq),16.00481,R,ugm-3,44.76587,R,ugm-3,69.30624,R,ugm-3
09-01-2019,10:00,16.425,R,ugm-3 (Ref.eq),10.55637,R,ugm-3,16.83405,R,ugm-3,33.02025,R,ugm-3
09-01-2019,11:00,16.425,R,ugm-3 (Ref.eq),9.60289,R,ugm-3,18.34786,R,ugm-3,33.07209,R,ugm-3
09-01-2019,12:00,10.628,R,ugm-3 (Ref.eq),6.81056,R,ugm-3,15.21667,R,ugm-3,25.65938,R,ugm-3
09-01-2019,13:00,12.561,R,ugm-3 (Ref.eq),2.28154,R,ugm-3,6.81728,R,ugm-3,10.31559,R,ugm-3
09-01-2019,14:00,13.527,R,ugm-3 (Ref.eq),4.52902,R,ugm-3,12.75371,R,ugm-3,19.69811,R,ugm-3
09-01-2019,15:00,13.527,R,ugm-3 (Ref.eq),5.78898,R,ugm-3,14.13938,R,ugm-3,23.01568,R,ugm-3
09-01-2019,16:00,18.358,R,ugm-3 (Ref.eq),9.16020,R,ugm-3,19.54501,R,ugm-3,33.59046,R,ugm-3
09-01-2019,17:00,15.459,R,ugm-3 (Ref.eq),25.13096,R,ugm-3,35.59348,R,ugm-3,74.12709,R,ugm-3
09-01-2019,18:00,14.493,R,ugm-3 (Ref.eq),23.90506,R,ugm-3,49.49939,R,ugm-3,86.15330,R,ugm-3
09-01-2019,19:00,20.290,R,ugm-3 (Ref.eq),21.07868,R,ugm-3,46.21305,R,ugm-3,78.53324,R,ugm-3
09-01-2019,20:00,15.459,R,ugm-3 (Ref.eq),7.86620,R,ugm-3,32.57043,R,ugm-3,44.63176,R,ugm-3
09-01-2019,21:00,20.290,R,ugm-3 (Ref.eq),7.59377,R,ugm-3,29.41138,R,ugm-3,41.05500,R,ugm-3
09-01-2019,22:00,20.290,R,ugm-3 (Ref.eq),6.60624,R,ugm-3,30.77006,R,ugm-3,40.89949,R,ugm-3
09-01-2019,23:00,19.324,R,ugm-3 (Ref.eq),7.76404,R,ugm-3,34.07484,R,ugm-3,45.97953,R,ugm-3
09-01-2019,24:00,20.290,R,ugm-3 (Ref.eq),3.88202,R,ugm-3,22.19521,R,ugm-3,28.14756,R,ugm-3
10-01-2019,01:00,20.290,R,ugm-3 (Ref.eq),2.08855,R,ugm-3,20.97773,R,ugm-3,24.18014,R,ugm-3
10-01-2019,02:00,16.425,R,ugm-3 (Ref.eq),1.77073,R,ugm-3,20.42876,R,ugm-3,23.14384,R,ugm-3
10-01-2019,03:00,21.256,R,ugm-3 (Ref.eq),0.88537,R,ugm-3,15.89671,R,ugm-3,17.25425,R,ugm-3
10-01-2019,04:00,18.358,R,ugm-3 (Ref.eq),1.63452,R,ugm-3,12.36455,R,ugm-3,14.87078,R,ugm-3
10-01-2019,05:00,15.459,R,ugm-3 (Ref.eq),3.57551,R,ugm-3,25.19185,R,ugm-3,30.67423,R,ugm-3
10-01-2019,06:00,13.527,R,ugm-3 (Ref.eq),4.63114,R,ugm-3,28.80652,R,ugm-3,35.90750,R,ugm-3
10-01-2019,07:00,19.324,R,ugm-3 (Ref.eq),14.37016,R,ugm-3,38.27823,R,ugm-3,60.31217,R,ugm-3
10-01-2019,08:00,21.256,R,ugm-3 (Ref.eq),30.27269,R,ugm-3,54.93184,R,ugm-3,101.34931,R,ugm-3
10-01-2019,09:00,25.121,R,ugm-3 (Ref.eq),44.37043,R,ugm-3,61.08822,R,ugm-3,129.12192,R,ugm-3
10-01-2019,10:00,22.223,R,ugm-3 (Ref.eq),48.15026,R,ugm-3,60.57765,R,ugm-3,134.40701,R,ugm-3
10-01-2019,11:00,23.189,R,ugm-3 (Ref.eq),41.61217,R,ugm-3,55.36908,R,ugm-3,119.17353,R,ugm-3
10-01-2019,12:00,20.290,R,ugm-3 (Ref.eq),27.99117,R,ugm-3,55.52850,R,ugm-3,98.44770,R,ugm-3
10-01-2019,13:00,20.290,R,ugm-3 (Ref.eq),57.99144,R,ugm-3,56.73182,R,ugm-3,145.65077,R,ugm-3
10-01-2019,14:00,21.256,R,ugm-3 (Ref.eq),23.56434,R,ugm-3,49.15531,R,ugm-3,85.28679,R,ugm-3
10-01-2019,15:00,23.189,R,ugm-3 (Ref.eq),46.85626,R,ugm-3,61.21457,R,ugm-3,133.05983,R,ugm-3
10-01-2019,16:00,18.358,R,ugm-3 (Ref.eq),51.96414,R,ugm-3,64.78180,R,ugm-3,144.45904,R,ugm-3
10-01-2019,17:00,16.425,R,ugm-3 (Ref.eq),46.82221,R,ugm-3,59.34964,R,ugm-3,131.14269,R,ugm-3
10-01-2019,18:00,17.392,R,ugm-3 (Ref.eq),35.41462,R,ugm-3,59.63860,R,ugm-3,113.94025,R,ugm-3
10-01-2019,19:00,26.087,R,ugm-3 (Ref.eq),24.14323,R,ugm-3,52.10196,R,ugm-3,89.12107,R,ugm-3
10-01-2019,20:00,22.223,R,ugm-3 (Ref.eq),29.93216,R,ugm-3,48.09630,R,ugm-3,93.99164,R,ugm-3
10-01-2019,21:00,18.358,R,ugm-3 (Ref.eq),14.13179,R,ugm-3,35.17214,R,ugm-3,56.84059,R,ugm-3
10-01-2019,22:00,13.527,R,ugm-3 (Ref.eq),8.88771,R,ugm-3,25.38875,R,ugm-3,39.01638,R,ugm-3
10-01-2019,23:00,13.527,R,ugm-3 (Ref.eq),6.57214,R,ugm-3,31.94449,R,ugm-3,42.02162,R,ugm-3
10-01-2019,24:00,14.493,R,ugm-3 (Ref.eq),3.88199,R,ugm-3,17.57152,R,ugm-3,23.52382,R,ugm-3
11-01-2019,01:00,12.561,R,ugm-3 (Ref.eq),1.27128,R,ugm-3,8.75441,R,ugm-3,10.70369,R,ugm-3
11-01-2019,02:00,10.628,R,ugm-3 (Ref.eq),0.68105,R,ugm-3,8.83076,R,ugm-3,9.87501,R,ugm-3
11-01-2019,03:00,9.662,R,ugm-3 (Ref.eq),0.78320,R,ugm-3,8.53601,R,ugm-3,9.73690,R,ugm-3
11-01-2019,04:00,7.730,R,ugm-3 (Ref.eq),1.15778,R,ugm-3,18.21649,R,ugm-3,19.99172,R,ugm-3
11-01-2019,05:00,8.696,R,ugm-3 (Ref.eq),2.24745,R,ugm-3,24.93599,R,ugm-3,28.38203,R,ugm-3
11-01-2019,06:00,7.730,R,ugm-3 (Ref.eq),5.24405,R,ugm-3,15.93895,R,ugm-3,23.97971,R,ugm-3
11-01-2019,07:00,14.493,R,ugm-3 (Ref.eq),23.93872,R,ugm-3,37.92678,R,ugm-3,74.63231,R,ugm-3
11-01-2019,08:00,17.392,R,ugm-3 (Ref.eq),34.80139,R,ugm-3,52.86407,R,ugm-3,106.22545,R,ugm-3
11-01-2019,09:00,27.054,R,ugm-3 (Ref.eq),35.10786,R,ugm-3,54.41404,R,ugm-3,108.24534,R,ugm-3
11-01-2019,10:00,17.392,R,ugm-3 (Ref.eq),38.81955,R,ugm-3,59.75456,R,ugm-3,119.27704,R,ugm-3
11-01-2019,11:00,15.459,R,ugm-3 (Ref.eq),31.87289,R,ugm-3,49.43018,R,ugm-3,98.30127,R,ugm-3
11-01-2019,12:00,18.358,R,ugm-3 (Ref.eq),23.18957,R,ugm-3,40.26668,R,ugm-3,75.82353,R,ugm-3
11-01-2019,13:00,23.189,R,ugm-3 (Ref.eq),24.31330,R,ugm-3,38.23291,R,ugm-3,75.51278,R,ugm-3
11-01-2019,14:00,16.425,R,ugm-3 (Ref.eq),19.40978,R,ugm-3,38.29348,R,ugm-3,68.05472,R,ugm-3
11-01-2019,15:00,16.425,R,ugm-3 (Ref.eq),16.27697,R,ugm-3,32.11714,R,ugm-3,57.07481,R,ugm-3
11-01-2019,16:00,11.594,R,ugm-3 (Ref.eq),20.63566,R,ugm-3,36.98354,R,ugm-3,68.62444,R,ugm-3
11-01-2019,17:00,20.290,R,ugm-3 (Ref.eq),12.53122,R,ugm-3,33.56180,R,ugm-3,52.77608,R,ugm-3
11-01-2019,18:00,16.425,R,ugm-3 (Ref.eq),12.25881,R,ugm-3,37.44957,R,ugm-3,56.24614,R,ugm-3
11-01-2019,19:00,19.324,R,ugm-3 (Ref.eq),10.59025,R,ugm-3,40.57770,R,ugm-3,56.81585,R,ugm-3
11-01-2019,20:00,22.223,R,ugm-3 (Ref.eq),16.65155,R,ugm-3,42.88526,R,ugm-3,68.41727,R,ugm-3
11-01-2019,21:00,24.155,R,ugm-3 (Ref.eq),7.38934,R,ugm-3,43.77656,R,ugm-3,55.10672,R,ugm-3
11-01-2019,22:00,16.425,R,ugm-3 (Ref.eq),3.98411,R,ugm-3,41.02186,R,ugm-3,47.13075,R,ugm-3
11-01-2019,23:00,16.425,R,ugm-3 (Ref.eq),3.40522,R,ugm-3,35.07293,R,ugm-3,40.29420,R,ugm-3
11-01-2019,24:00,14.493,R,ugm-3 (Ref.eq),2.45176,R,ugm-3,27.21232,R,ugm-3,30.97163,R,ugm-3
12-01-2019,01:00,19.324,R,ugm-3 (Ref.eq),3.85922,R,ugm-3,24.73014,R,ugm-3,30.64753,R,ugm-3
12-01-2019,02:00,14.493,R,ugm-3 (Ref.eq),0.90805,R,ugm-3,11.65358,R,ugm-3,13.04591,R,ugm-3
12-01-2019,03:00,5.797,R,ugm-3 (Ref.eq),1.22587,R,ugm-3,10.13088,R,ugm-3,12.01052,R,ugm-3
12-01-2019,04:00,5.797,R,ugm-3 (Ref.eq),0.91940,R,ugm-3,9.30655,R,ugm-3,10.71628,R,ugm-3
12-01-2019,05:00,5.797,R,ugm-3 (Ref.eq),0.40862,R,ugm-3,6.05172,R,ugm-3,6.67826,R,ugm-3